Current Version              Previous Version:    01  02  03  04  05  06  07  08  09  10  11  12  13  14  15  16  17  18  19  20  21  22  23  24  25  26  27  28  29  30  
   31  32  33  34  35  36  37  38  39  40  41  42  43  44  45  46  47  48  49  50  51  52  53  54  55  56  57  58  59  60  

[Printable]
081
ASUS44 KFWD 280710
RWRTX
NORTH TEXAS HOURLY WEATHER ROUNDUP
NATIONAL WEATHER SERVICE FORT WORTH TX
200 AM CDT MON JUL 28 2014

NOTE: "FAIR" INDICATES FEW OR NO CLOUDS BELOW 12,000 FEET WITH NO
SIGNIFICANT WEATHER AND/OR OBSTRUCTIONS TO VISIBILITY.

TXZ118-119-280800-
DALLAS/FORT WORTH METROPLEX

CITY           SKY/WX    TMP DP  RH WIND       PRES   REMARKS
DFW AIRPORT    PTCLDY    87  68  52 S10       30.02R HX  90
DALLAS LOVE    PTCLDY    88  68  51 CALM      30.02R HX  91
FTW MEACHAM    CLEAR     86  66  51 SW8       30.02S
DAL-EXECUTIVE  CLEAR     86  69  56 S6        30.02S HX  90
FTW-ALLIANCE   PTCLDY    85  65  51 S5        30.02S
FTW-NAS-JRB    CLEAR     88  65  46 S10       30.06F HX  90
FTW-SPINKS     CLEAR     84  67  58 S7        30.04F
ARLINGTON      CLEAR     85  68  56 S6        30.02S
GRAND PRAIRIE  CLEAR     85  67  54 S7        30.03S
ADDISON        CLEAR     88  66  47 S6        30.04S HX  90
MESQUITE       CLEAR     77  71  83 CALM      30.02S
LANCASTER      CLEAR     83  68  60 S3        30.02F
$$

TXZ091>094-102>105-117-120-121-131>134-280800-
NORTH CENTRAL TEXAS

CITY           SKY/WX    TMP DP  RH WIND       PRES   REMARKS
SHRMAN/DENISON CLEAR     83  70  64 E5        30.05S
GAINESVILLE    CLEAR     82  72  70 CALM      30.06S
BOWIE          CLEAR     79  70  72 CALM      30.05F
BRIDGEPORT     CLEAR     78  65  64 CALM      30.05F
DECATUR        CLEAR     85  63  46 S10       30.05S
DENTON         CLEAR     83  66  56 CALM      30.02S
MCKINNEY       PTCLDY    81  72  74 S3        30.02S
GREENVILLE     CLEAR     79  72  78 CALM      30.03S
ROCKWALL       PTCLDY    81  72  75 CALM      30.02S
TERRELL        CLEAR     82  75  79 CALM      30.02F
WAXAHACHIE     CLEAR     83  67  58 S9        30.04S
CLEBURNE       CLEAR     82  72  69 S7        30.06S
GRANBURY       CLEAR     84  67  56 CALM      30.05S
$$

TXZ083>090-098>101-113>116-127>130-139>142-154-155-280800-
WESTERN NORTH TEXAS

CITY           SKY/WX    TMP DP  RH WIND       PRES   REMARKS
WICHITA FALLS  CLEAR     84  75  74 NE8       30.05F HX  92
WF-KICKAPOO    CLEAR     85  74  68 NE6       30.06F HX  92
VERNON         CLEAR     83  67  58 NE12      30.09R
ABILENE        CLEAR     81  62  52 SE8       30.09S
ABILENE-DYESS  CLEAR     82  64  54 SE10      30.07F
BRECKENRIDGE   MOCLDY    85  62  45 S8        30.05S
GRAHAM         MOCLDY    85  64  50 SE5       30.03S
MINERAL WELLS  CLEAR     80  65  59 SE9       30.03S
STEPHENVILLE   CLEAR     79  65  61 S3        30.09F
COMANCHE       CLEAR     78  64  60 SE5       30.08S
BROWNWOOD      PTCLDY    79  64  61 SE3       30.07S
COLEMAN        CLEAR     80  59  48 CALM      30.08S
BRADY          CLEAR     81  64  57 S6        30.09R
$$

TXZ143>147-156>162-174-175-280800-
CENTRAL TEXAS

CITY           SKY/WX    TMP DP  RH WIND       PRES   REMARKS
WACO           CLEAR     83  71  67 S12       30.03S
WACO-MCGREGOR  CLEAR     82  68  61 S10       30.05S
HILLSBORO      CLEAR     83  69  61 S9        30.04S
CORSICANA      CLEAR     82  71  69 S8        30.03S
MEXIA          CLEAR     81  73  76 S9        30.04S
HEARNE         CLEAR    N/A N/A N/A SE5       30.05S
CAMERON        CLEAR     82  74  77 S8        30.05S
TEMPLE         CLEAR     81  68  65 S12       30.06S
KILLEEN        CLEAR     81  68  65 S12       30.06S
KILLEEN-SKYLRK CLEAR     81  64  57 S10       30.06S
FORT HOOD      CLEAR     83  68  60 S8        30.06S
GATESVILLE     CLEAR     84  68  58 S8        30.07F
HAMILTON       CLEAR     79  66  65 S6        30.08S
LAMPASAS       CLEAR     81  70  71 CALM      30.07S
$$

TXZ095>097-106>112-122>126-135>138-148>153-164>167-280800-
EAST TEXAS

CITY           SKY/WX    TMP DP  RH WIND       PRES   REMARKS
PARIS          CLEAR     82  72  69 CALM      30.05S
SULPHUR SPRNGS PTCLDY    82  73  74 CALM      30.05S
CLARKSVILLE    PTCLDY    81  74  79 CALM      30.03F
MOUNT PLEASANT PTCLDY    78  75  91 CALM      30.04F
GILMER         CLEAR     79  75  89 CALM      30.04S
MINEOLA        PTCLDY    79  75  89 CALM      30.03S
TYLER          CLEAR     79  73  82 S5        30.03S
LONGVIEW       CLEAR     77  72  84 CALM      30.02S
MARSHALL       PTCLDY    78  75  91 CALM      30.04F
ATHENS         CLEAR     77  72  83 CALM      30.02S
JACKSONVILLE   CLEAR     79  75  86 S8        30.06F
HENDERSON      CLEAR     77  73  89 CALM      30.04S
NACOGDOCHES    CLEAR     79  75  89 SW5       30.04S
LUFKIN         CLEAR     83  76  79 S6        30.04S HX  91
$$

SUPPLEMENTAL OBSERVATIONS (CENTRAL)

CITY           SKY/WX    TMP DP  RH WIND       PRES   REMARKS
PAT MAYSE LAKE   N/A     84  75  74 SE1         N/A  HX  92
GREENVILLE       N/A     81  73  78 CALM        N/A
CEDAR HILL       N/A     84  68  58 S5          N/A
MCGREGOR         N/A     82  70  65 S8          N/A
TEMPLE           N/A     81  72  74 S8          N/A
$$

SUPPLEMENTAL OBSERVATIONS (WEST)

CITY           SKY/WX    TMP DP  RH WIND       PRES   REMARKS
GRANBURY         N/A     82  64  54 SE3         N/A
HAMBY            N/A     82  61  47 S8          N/A
$$

SUPPLEMENTAL OBSERVATIONS (EAST)

CITY           SKY/WX    TMP DP  RH WIND       PRES   REMARKS
CLARKSVILLE      N/A     79  75  89 CALM        N/A
GILMER           N/A     77  73  88 CALM        N/A
HENDERSON        N/A     77  72  83 S2          N/A
N SABINE NF      N/A     75  72  88 MISG        N/A
S SABINE NF      N/A     77  73  88 S1          N/A
$$

SUPPLEMENTAL OBSERVATIONS ARE A COLLECTION OF AUTOMATED INSTRUMENTS
THAT ARE MAINTAINED BY A VARIETY OF FEDERAL AND STATE AGENCIES.
CERTAIN ELEMENTS...SUCH AS HUMIDITY VALUES AND SUSTAINED WIND
SPEEDS...MAY BE APPROXIMATED.